TimeEST,TemperatureF,Dew PointF,Humidity,Sea Level PressureIn,VisibilityMPH,Wind Direction,Wind SpeedMPH,Gust SpeedMPH,PrecipitationIn,Events,Conditions,WindDirDegrees,DateUTC
12:53 AM,33.1,18.0,54,30.15,10.0,Variable,5.8,-,N/A,,Overcast,0,2013-01-04 05:53:00
1:53 AM,32.0,17.1,54,30.16,10.0,Variable,4.6,-,N/A,,Overcast,0,2013-01-04 06:53:00
2:53 AM,32.0,18.0,56,30.17,10.0,Calm,Calm,-,N/A,,Overcast,0,2013-01-04 07:53:00
3:53 AM,30.9,17.1,57,30.17,10.0,West,9.2,18.4,N/A,,Overcast,270,2013-01-04 08:53:00
4:53 AM,30.0,17.1,59,30.17,10.0,West,9.2,20.7,N/A,,Overcast,270,2013-01-04 09:53:00
5:53 AM,30.0,18.0,61,30.18,10.0,Variable,5.8,17.3,N/A,,Overcast,0,2013-01-04 10:53:00
6:53 AM,30.0,18.0,61,30.17,10.0,Variable,3.5,-,N/A,,Overcast,0,2013-01-04 11:53:00
7:53 AM,30.0,19.0,64,30.16,10.0,SSW,6.9,-,N/A,,Overcast,210,2013-01-04 12:53:00
9:53 AM,32.0,19.0,59,30.17,10.0,WNW,8.1,-,N/A,,Overcast,290,2013-01-04 14:53:00
10:53 AM,32.0,19.9,61,30.18,10.0,SSW,9.2,-,N/A,,Overcast,210,2013-01-04 15:53:00
11:53 AM,33.1,19.0,56,30.15,10.0,West,8.1,24.2,N/A,,Overcast,280,2013-01-04 16:53:00
12:53 PM,35.1,19.9,54,30.10,10.0,West,9.2,19.6,N/A,,Partly Cloudy,260,2013-01-04 17:53:00
1:53 PM,36.0,19.0,50,30.08,10.0,Variable,5.8,18.4,N/A,,Clear,0,2013-01-04 18:53:00
2:53 PM,37.0,19.0,48,30.09,10.0,Variable,5.8,19.6,N/A,,Clear,0,2013-01-04 19:53:00
3:53 PM,37.0,19.0,48,30.10,10.0,Variable,6.9,25.3,N/A,,Clear,0,2013-01-04 20:53:00
4:53 PM,35.1,18.0,50,30.09,10.0,Variable,6.9,-,N/A,,Clear,0,2013-01-04 21:53:00
5:53 PM,34.0,18.0,52,30.10,10.0,Variable,4.6,-,N/A,,Clear,0,2013-01-04 22:53:00
6:53 PM,33.1,18.0,54,30.11,10.0,WSW,6.9,-,N/A,,Clear,240,2013-01-04 23:53:00
7:53 PM,33.1,18.0,54,30.12,10.0,Variable,3.5,-,N/A,,Clear,0,2013-01-05 00:53:00
8:53 PM,32.0,18.0,56,30.12,10.0,WSW,9.2,21.9,N/A,,Clear,240,2013-01-05 01:53:00
9:53 PM,33.1,18.0,54,30.12,10.0,SSW,12.7,21.9,N/A,,Clear,210,2013-01-05 02:53:00
10:53 PM,34.0,19.0,54,30.12,10.0,Variable,5.8,19.6,N/A,,Clear,0,2013-01-05 03:53:00
11:53 PM,34.0,18.0,52,30.12,10.0,West,11.5,21.9,N/A,,Clear,270,2013-01-05 04:53:00